Regional Weather Roundup
Issued by NWS

Home | Current Version | Previous Version | Text Only | Print | Product List | Glossary Off
Versions: 1 2 3 4 5 6 7 8 9 10 11 12 13 14 15 16 17 18 19 20 21 22 23 24 25 26 27 28 29 30 31 32 33 34 35 36 37 38 39 40 41 42 43 44 45 46 47 48 49 50

000
ASUS43 KOAX 250302
RWRNE

WEATHER ROUNDUP FOR NEBRASKA
NATIONAL WEATHER SERVICE OMAHA NE
1000 PM CDT FRI APR 24 2015

NOTES: SATELLITE DATA IS BEING USED TO AUGMENT CLOUD COVER ABOVE
       12000 FEET.
       "FAIR" INDICATES FEW OR NO CLOUDS BELOW 12,000 FEET WITH NO
       SIGNIFICANT WEATHER AND/OR OBSTRUCTIONS TO VISIBILITY.

  * THESE STATIONS DO NOT REPORT WEATHER SUCH AS RAIN...SNOW OR FOG.

NEZ001>004-019>022-054>056-250400-
NEBRASKA PANHANDLE

CITY           SKY/WX    TMP DP  RH WIND       PRES   REMARKS
SCOTTSBLUFF    CLOUDY    51  44  77 CALM      29.60S
ALLIANCE       MOCLDY    51  42  71 W9        29.61R
CHADRON        CLOUDY    50  44  80 N7        29.61R
KIMBALL        CLOUDY    49  38  67 NW5       29.62S
SIDNEY         MOCLDY    52  37  56 NW9       29.59F
$$

NEZ057>060-069>072-079>082-250400-
SOUTHWEST NEBRASKA

CITY           SKY/WX    TMP DP  RH WIND       PRES   REMARKS
IMPERIAL       CLOUDY    58  40  51 NW16      29.55R
MCCOOK         CLOUDY    60  54  80 E5        29.51R
$$

NEZ005>010-023>029-035>040-094-250400-
NORTH CENTRAL NEBRASKA

CITY           SKY/WX    TMP DP  RH WIND       PRES   REMARKS
VALENTINE      LGT RAIN  56  50  80 N10G21    29.54R
AINSWORTH      CLOUDY    61  46  59 S7        29.50R
BROKEN BOW     MOCLDY    59  42  53 NE12      29.54F
ORD            CLOUDY    60  54  80 SW6       29.54R
$$

NEZ041-046>049-061>064-073>077-083>087-250400-
SOUTH CENTRAL NEBRASKA

CITY           SKY/WX    TMP DP  RH WIND       PRES   REMARKS
GRAND ISLAND   CLOUDY    58  55  90 E5        29.54R
AURORA         CLOUDY    58  55  91 SE10      29.54R
HASTINGS       CLOUDY    57  54  89 E9        29.53R
KEARNEY *      CLOUDY    57  54  88 E7        29.53R
YORK           CLOUDY    57  54  88 SE12      29.53R
$$

NEZ011>018-030>034-042>045-250400-
NORTHEAST NEBRASKA

CITY           SKY/WX    TMP DP  RH WIND       PRES   REMARKS
NORFOLK        CLOUDY    62  54  74 S10       29.55R
BLAIR          CLOUDY    57  51  81 E13       29.57R
COLUMBUS *     CLOUDY    57  50  77 NE3       29.56R
TEKAMAH        CLOUDY    60  52  74 SE14      29.57R
$$

NEZ050>053-065>068-078-088>093-250400-
SOUTHEAST NEBRASKA

CITY           SKY/WX    TMP DP  RH WIND       PRES   REMARKS
LINCOLN        CLOUDY    58  54  86 SE12      29.53F
OMAHA EPPLEY   CLOUDY    58  53  84 E14       29.57R
FALLS CITY     CLOUDY    59  53  80 E14       29.54F
NEBRASKA CITY  CLOUDY    56  50  79 SE10      29.56S
PLATTSMOUTH    CLOUDY    56  52  84 E9        29.55F
$$

NEZ044-045-051>053-067-250400-
OMAHA AREA

CITY           SKY/WX    TMP DP  RH WIND       PRES   REMARKS
OMAHA EPPLEY   CLOUDY    58  53  84 E14       29.57R
BLAIR          CLOUDY    57  51  81 E13       29.57R
OFFUTT AFB     CLOUDY    57  53  85 E10       29.56R
PLATTSMOUTH    CLOUDY    56  52  84 E9        29.55F
WAHOO          CLOUDY    58  52  81 SE13      29.56R
$$



USA.gov is the U.S. government's official web portal to all federal, state and local government web resources and services.